Dewpoint
45 45 44 44 44 44 43 42 43 42 41 41 42 44 44 43 43 40 39 39 35 32 30 35 35 32 30 28 26 28 27 28 28 25 23 25 24 25 25 28 25 22 20 20 20 19 16 27 25 22 28 32 30 30
45 45 44 45 44 43 42 42 43 42 42 41 43 44 43 43 43 40 37 39 39 34 32 36 36 35 34 31 32 30 26 28 30 27 27 26 26 27 24 23 28 25 26 22 23 24 30 30 29 30 30 28 28 27
44 44 44 44 44 43 43 43 43 43 43 41 43 43 43 43 43 39 38 37 36 33 31 33 31 35 36 36 34 30 30 33 32 32 30 29 25 27 23 23 27 28 30 27 26 29 28 28 29 28 29 27 27 27
45 43 43 43 43 42 42 42 43 43 43 43 43 43 43 42 41 39 37 37 35 33 31 29 32 32 37 36 35 35 35 35 34 32 29 28 24 28 25 25 27 28 28 27 27 29 28 28 28 28 29 28 27 25
44 44 43 43 43 43 42 43 42 43 43 43 43 42 43 42 41 39 39 39 37 33 29 28 32 33 35 36 35 35 34 32 30 30 30 27 28 29 28 29 27 28 28 26 24 30 28 28 30 29 29 27 26 24
43 44 42 43 43 43 43 42 41 42 42 43 42 42 41 37 34 34 31 37 40 37 31 26 30 32 36 37 35 34 35 34 32 30 30 29 28 28 26 24 28 30 31 32 29 31 30 29 28 29 29 26 24 23
43 43 42 43 43 43 42 42 41 42 42 42 42 40 39 40 38 32 31 36 42 38 30 26 29 31 36 35 34 36 37 34 34 32 29 28 27 32 28 24 29 31 31 32 32 30 28 28 25 27 26 25 23 21
44 43 43 43 43 42 42 41 41 42 41 41 39 39 39 39 36 36 40 42 40 35 30 26 27 33 35 32 32 32 35 35 33 31 30 28 29 29 24 26 30 29 28 28 27 27 26 25 24 24 23 21 18 17
43 43 43 43 43 42 42 42 42 41 42 39 37 35 33 32 31 37 41 40 39 32 26 26 26 26 34 32 32 32 31 29 29 28 28 28 26 25 26 28 29 28 28 25 24 22 21 20 19 18 17 17 15 15
43 43 43 42 42 42 42 42 42 42 40 35 31 28 24 32 36 40 35 31 31 33 32 26 27 30 32 30 29 29 31 27 24 26 30 27 27 24 25 26 25 28 27 26 23 20 19 17 17 16 15 14 13 13
43 43 42 42 41 40 42 42 41 38 34 31 27 28 33 37 33 29 25 25 28 25 28 27 27 30 32 28 27 29 28 28 21 26 27 25 24 24 24 22 22 22 24 24 22 22 20 18 16 15 14 13 12 12
43 43 43 42 41 41 41 41 37 32 30 30 34 36 34 29 25 21 22 25 25 23 27 26 27 30 33 31 29 30 25 28 21 30 27 22 24 22 21 19 19 19 19 19 19 18 17 16 15 14 12 12 11 11
41 41 42 42 40 41 41 37 35 37 35 32 28 24 22 23 15 14 15 21 22 25 27 28 27 31 32 31 30 29 23 23 28 25 21 24 21 21 19 16 15 16 17 16 16 15 14 14 14 13 10 9 9 6
39 41 41 41 41 40 38 39 37 33 29 23 20 18 15 16 17 19 22 24 26 27 27 27 28 29 28 26 26 22 24 25 21 18 20 23 21 20 17 16 14 15 15 14 12 10 9 8 5 5 5 3 6 7
40 40 41 41 41 39 40 37 34 31 26 21 19 11 19 19 22 27 26 27 28 30 29 29 28 28 26 23 25 22 20 18 19 19 23 20 21 19 18 16 15 13 10 9 9 8 6 6 8 5 3 5 6 3
37 38 38 41 39 39 37 35 32 30 26 23 22 19 19 21 20 22 26 28 31 32 30 32 25 22 24 23 23 20 18 16 21 23 21 19 19 18 17 16 14 12 10 9 9 8 8 7 8 9 5 6 3 6
35 34 39 40 39 37 37 33 28 26 23 21 15 23 25 24 21 23 27 31 33 31 30 30 21 21 25 23 20 23 20 23 23 19 18 20 19 17 15 13 10 10 10 10 9 9 8 8 8 9 9 8 8 8
32 38 39 39 37 36 35 31 26 24 19 18 15 15 24 19 24 27 28 31 31 32 31 28 26 22 19 19 19 23 21 17 17 17 18 17 17 16 15 13 11 11 10 10 10 9 7 8 9 9 10 10 10 10
36 37 39 38 37 34 29 30 27 18 16 18 17 21 26 24 28 26 26 28 31 32 31 26 22 22 22 23 24 21 17 19 19 15 14 10 15 14 12 11 10 11 10 10 10 10 10 11 12 11 11 11 12 12
37 37 37 37 36 29 27 26 29 23 20 21 22 23 24 23 26 27 27 27 29 30 28 25 23 25 25 26 24 24 20 17 15 14 13 12 12 12 12 12 12 12 11 10 11 10 11 11 12 13 14 14 14 14
33 35 36 35 32 31 27 26 25 25 23 21 23 24 21 23 24 23 22 27 26 26 24 26 24 21 16 17 18 19 18 18 19 19 17 14 11 14 12 13 12 13 12 12 12 12 12 15 15 15 17 17 16 16
33 34 32 32 27 28 27 28 25 25 23 24 24 25 20 16 19 22 24 23 22 22 22 23 22 23 22 19 18 19 18 19 18 15 14 14 12 12 12 13 13 13 13 13 13 14 14 15 16 16 16 14 8 11
32 30 29 28 19 20 23 30 21 24 18 19 24 20 18 18 21 25 22 22 20 18 18 18 18 17 17 15 17 17 17 18 17 16 15 17 16 16 15 14 15 14 13 12 14 15 15 13 13 15 13 9 10 10
30 22 15 18 19 11 24 21 26 24 22 21 19 17 17 20 22 19 17 16 17 21 22 21 20 19 19 19 17 17 17 17 16 15 16 15 14 14 14 14 15 15 14 14 15 16 15 14 13 12 10 10 8 9
13 11 18 16 22 20 19 13 17 21 16 18 19 17 19 20 16 14 13 16 19 22 21 22 23 22 20 17 16 16 17 17 16 15 15 16 15 15 14 14 15 15 17 16 15 14 14 12 12 12 10 10 10 7
12 10 18 13 10 17 16 13 17 16 14 14 17 14 16 16 15 13 14 15 16 18 18 19 18 21 21 20 18 17 17 18 17 16 16 16 16 16 15 14 14 15 17 18 17 15 15 12 11 11 11 9 7 10
10 10 22 26 27 27 22 23 23 19 15 13 13 11 13 9 8 12 15 14 13 15 16 19 19 19 23 22 20 19 19 19 17 16 17 18 17 17 17 16 14 17 18 17 17 16 15 12 11 11 12 12 11 9
19 19 16 19 22 24 22 21 19 18 19 18 16 15 12 11 10 8 11 12 11 12 15 19 19 18 20 20 19 17 15 14 15 16 17 16 13 15 15 17 17 17 18 19 19 17 17 15 14 12 12 12 11 9
19 21 19 13 16 18 17 17 17 17 17 20 19 12 8 6 6 5 7 8 10 10 12 12 15 16 16 15 16 16 17 18 17 15 14 15 15 17 14 15 16 17 16 16 13 15 15 15 14 12 11 12 12 10
14 19 12 8 10 12 10 13 12 12 16 17 15 13 8 7 7 8 6 5 5 6 6 9 13 13 12 13 14 15 15 17 17 19 17 16 17 17 13 14 14 13 12 14 14 14 14 12 11 8 8 7 8 7
21 19 16 12 9 10 11 12 11 12 12 11 11 10 6 5 6 6 4 4 6 6 5 5 5 6 5 8 13 15 16 16 16 16 16 16 15 13 11 10 10 10 11 12 12 12 10 10 11 10 8 7 6 7
16 16 14 10 10 11 10 10 10 10 8 9 6 6 5 4 -1 1 3 3 2 1 2 3 3 5 7 8 11 11 11 12 13 12 13 14 12 10 9 8 9 10 10 10 11 10 10 10 9 8 7 7 7 7
12 12 10 11 11 11 11 12 11 9 8 7 3 2 -2 0 -4 -0 2 2 1 -0 0 1 3 6 8 7 7 8 7 8 7 9 6 5 3 7 8 9 9 10 9 9 9 8 7 7 7 6 7 6 5 5
Lifted_Index
2 2 2 2 3 4 5 6 6 6 7 7 6 5 5 5 5 5 4 4 4 3 4 4 5 5 5 6 7 7 7 7 6 6 5 5 5 5 5 4 4 3 3 3 3 2 3 4 4 4 4 5 6 6
1 1 1 2 3 4 5 5 6 6 6 6 5 5 5 5 5 5 5 4 4 4 4 4 5 5 6 6 7 7 7 7 7 6 6 5 5 5 5 4 4 4 3 3 3 3 3 4 4 5 5 5 6 6
1 1 1 2 3 4 4 5 5 6 6 5 5 4 5 5 5 5 5 5 5 4 4 4 5 5 6 6 7 7 7 7 7 7 6 6 6 6 5 5 5 5 4 4 3 4 4 4 5 5 5 6 6 6
1 1 1 2 3 4 4 4 5 5 5 5 4 5 5 5 5 5 6 6 5 5 4 4 4 5 5 6 6 7 7 7 7 7 7 7 6 6 6 6 5 5 5 4 4 4 4 4 5 5 5 6 6 6
1 1 2 2 3 3 4 4 5 5 5 5 5 5 5 5 6 6 6 6 6 5 4 4 4 5 5 5 6 6 7 7 7 7 7 7 7 7 6 6 6 6 5 4 4 4 4 4 5 5 5 5 6 7
1 1 1 2 3 3 4 5 5 5 5 5 5 5 6 6 6 7 7 6 6 5 4 4 4 4 5 5 6 6 6 6 7 7 7 7 7 7 6 6 6 6 5 4 4 4 4 4 4 5 5 6 7 7
1 1 1 2 2 3 4 4 5 5 5 5 6 6 6 6 7 7 7 6 6 5 4 4 4 4 4 5 5 6 6 6 6 6 6 7 7 6 6 6 6 6 5 5 5 4 4 4 4 5 6 6 7 8
1 1 1 2 2 3 3 4 5 5 5 6 6 7 7 7 7 7 6 6 6 5 5 4 4 4 4 5 5 6 6 6 6 6 6 6 6 6 6 6 6 6 5 5 5 5 4 4 5 6 6 7 7 7
1 1 1 2 2 3 3 3 4 5 5 7 7 7 7 7 6 6 6 6 6 6 5 5 5 4 4 5 5 5 6 6 6 5 5 5 5 5 5 5 5 5 5 4 4 4 4 5 5 6 7 7 7 8
1 1 1 2 2 2 3 3 4 5 6 7 8 7 7 6 6 6 6 6 6 6 6 5 5 4 5 5 5 5 5 5 5 5 4 4 4 4 4 4 4 4 4 4 4 4 4 5 6 6 7 8 9 9
1 1 1 2 2 2 2 3 4 5 6 7 7 7 6 6 6 6 6 6 6 6 6 5 5 4 5 5 5 5 5 4 4 4 4 4 3 3 3 3 4 4 4 5 5 5 6 6 7 7 8 9 10 10
2 2 2 2 2 2 2 3 4 5 6 6 6 6 6 6 6 6 6 6 6 6 6 5 4 4 4 4 4 5 4 4 4 4 4 3 3 2 2 2 3 4 5 5 6 6 7 7 8 9 9 10 11 11
2 2 2 2 2 2 3 3 4 5 5 5 5 5 6 6 6 5 5 6 6 6 6 5 4 4 4 4 4 4 4 4 4 4 3 3 2 2 2 2 3 4 5 6 6 7 8 9 9 10 11 12 12 13
2 2 2 2 2 3 3 4 4 4 5 5 5 4 5 5 5 6 6 5 5 5 5 5 4 3 4 4 4 4 4 4 4 3 3 3 2 2 2 2 3 4 5 6 7 8 9 10 10 11 12 13 14 14
2 2 2 2 2 3 3 4 4 4 4 4 4 4 4 5 5 5 5 5 5 4 4 4 4 3 4 4 4 4 4 3 3 3 3 2 2 2 2 3 4 5 6 7 8 9 10 11 12 12 13 14 15 15
3 3 2 2 2 3 3 4 4 4 4 4 4 4 4 4 5 5 5 4 4 4 3 3 3 4 4 4 4 4 3 3 3 3 3 2 2 2 3 4 5 6 7 8 9 10 11 12 13 13 14 15 15 15
3 3 2 2 2 3 3 3 3 3 4 4 4 4 4 4 4 4 4 4 4 3 3 3 3 3 4 4 4 3 3 3 3 3 3 2 2 3 4 5 6 7 8 9 11 12 12 13 13 14 14 15 15 15
3 3 3 2 2 2 3 3 3 3 3 4 4 4 4 4 4 4 4 4 4 4 3 3 3 3 3 3 3 3 3 3 3 3 3 3 3 4 5 6 7 8 9 11 12 12 13 13 14 14 14 15 15 15
3 3 2 2 2 2 2 3 3 3 3 4 4 4 4 4 4 5 5 5 4 4 4 3 3 3 3 3 3 3 3 3 3 3 3 3 4 5 5 6 8 9 10 11 12 13 13 14 14 14 15 15 15 15
3 2 2 2 2 2 3 3 3 3 3 4 4 5 5 5 5 5 5 5 5 4 4 3 3 2 2 2 2 3 3 3 3 3 3 3 4 5 6 7 9 10 11 12 13 13 14 14 14 15 15 15 15 15
3 3 3 3 3 3 3 3 3 3 4 4 5 5 5 5 5 5 5 6 5 4 4 3 2 2 2 2 2 2 2 3 3 3 3 4 4 5 6 7 9 11 11 12 13 13 14 14 15 15 15 15 16 16
4 4 4 3 3 3 3 3 3 3 4 4 4 4 4 4 4 5 5 5 4 4 4 3 2 2 2 2 2 2 2 3 3 3 3 4 5 6 7 8 9 11 11 12 13 13 14 15 15 15 15 16 16 16
5 5 4 4 3 3 3 3 3 4 4 4 4 4 3 3 4 4 4 3 3 4 4 4 3 3 3 3 3 3 3 3 4 4 4 5 6 7 8 9 10 11 12 13 14 14 15 15 15 15 15 16 16 16
5 5 4 4 4 4 4 4 4 4 4 3 3 3 3 3 3 3 3 3 3 4 4 4 4 3 3 3 3 4 4 4 4 5 5 6 7 8 9 11 12 12 13 14 14 14 15 15 15 16 15 15 15 15
5 5 5 4 4 4 4 4 4 3 3 3 3 3 3 2 2 2 2 2 3 3 4 4 4 4 3 4 4 5 5 6 6 6 7 8 8 9 10 11 12 13 14 14 14 14 15 15 15 15 15 15 15 15
5 5 4 4 4 4 4 4 3 3 3 3 3 3 2 2 2 2 2 3 4 5 5 5 5 4 4 4 5 6 7 7 7 7 9 10 11 11 11 12 12 13 14 15 14 14 15 15 15 15 15 15 15 16
5 4 4 4 3 3 3 3 3 3 3 2 2 2 2 1 1 2 4 5 6 7 8 8 8 7 6 6 7 8 9 10 10 10 11 13 13 14 13 13 14 14 15 15 15 15 15 15 15 15 15 15 16 16
5 4 4 4 4 4 3 3 3 3 3 3 3 2 2 2 3 4 6 8 9 10 10 10 10 10 9 9 10 10 11 11 11 12 12 13 14 15 15 15 15 16 16 16 16 16 16 15 15 15 15 16 16 16
5 5 5 4 4 4 4 4 4 4 4 4 4 4 4 4 6 8 9 10 11 11 11 11 11 12 12 12 12 12 13 13 12 12 12 12 14 15 16 16 16 16 16 16 16 16 16 16 16 16 16 16 16 16
5 5 5 5 4 5 5 5 5 5 5 5 5 5 5 7 9 11 12 12 12 12 12 12 12 13 13 13 13 13 14 14 14 13 13 13 14 16 16 16 16 16 16 16 16 16 16 16 16 16 16 16 16 17
5 5 5 5 5 5 6 6 6 7 7 7 7 7 7 8 10 13 14 14 13 13 13 13 14 14 14 14 14 14 15 16 16 16 15 15 16 16 16 16 16 16 16 16 16 16 16 16 16 16 16 16 17 17
6 6 5 5 5 6 7 7 7 7 7 7 7 7 8 8 9 13 16 17 16 15 15 15 15 15 16 16 16 16 16 17 17 17 17 17 17 17 17 17 17 17 16 16 17 17 17 17 17 17 17 17 17 18
6 6 6 6 6 6 7 7 7 7 7 7 7 8 8 8 8 13 18 19 18 17 16 17 17 17 17 17 17 18 18 18 18 18 18 18 18 17 17 17 17 17 17 17 17 17 17 17 17 17 18 18 18 18